EN

Hourly Weather Alichur

Today, 19 January, Tuesday

Time Temperature Precipitation Wind Pressure Humidity
00:00 -25°C° 0 mm 2 mps 445 mmHg 81%
01:00 -25°C° 0 mm 2 mps 445 mmHg 83%
02:00 -25°C° 0 mm 2 mps 445 mmHg 85%
03:00 -26°C° 0 mm 2 mps 445 mmHg 87%
04:00 -26°C° 0 mm 2 mps 445 mmHg 88%
05:00 -26°C° 0 mm 2 mps 444 mmHg 88%
06:00 -26°C° 0 mm 2 mps 444 mmHg 88%
07:00 -26°C° 0 mm 2 mps 445 mmHg 88%
08:00 -26°C° 0 mm 2 mps 445 mmHg 88%
09:00 -24°C° 0 mm 2 mps 446 mmHg 86%
10:00 -21°C° 0 mm 2 mps 448 mmHg 84%
11:00 -18°C° 0 mm 2 mps 449 mmHg 83%
12:00 -17°C° 0 mm 2 mps 449 mmHg 82%
13:00 -17°C° 0 mm 2 mps 449 mmHg 81%
14:00 -16°C° 0 mm 2 mps 449 mmHg 81%
15:00 -18°C° 0 mm 2 mps 447 mmHg 85%
16:00 -20°C° 0 mm 2 mps 446 mmHg 89%
17:00 -23°C° 0 mm 2 mps 445 mmHg 93%
18:00 -23°C° 0 mm 2 mps 445 mmHg 93%
19:00 -24°C° 0 mm 2 mps 445 mmHg 93%
20:00 -25°C° 0 mm 2 mps 446 mmHg 93%
21:00 -25°C° 0 mm 2 mps 446 mmHg 94%
22:00 -26°C° 0 mm 2 mps 446 mmHg 96%
23:00 -26°C° 0 mm 2 mps 446 mmHg 97%

Tomorrow, 20 January, Wednesday

Time Temperature Precipitation Wind Pressure Humidity
00:00 -26°C° 0 mm 2 mps 445 mmHg 97%
01:00 -27°C° 0 mm 2 mps 445 mmHg 98%
02:00 -27°C° 0 mm 2 mps 445 mmHg 98%
03:00 -27°C° 0 mm 2 mps 445 mmHg 98%
04:00 -27°C° 0 mm 2 mps 446 mmHg 97%
05:00 -27°C° 0 mm 2 mps 446 mmHg 97%
06:00 -28°C° 0 mm 2 mps 446 mmHg 96%
07:00 -28°C° 0 mm 2 mps 447 mmHg 96%
08:00 -28°C° 0 mm 2 mps 447 mmHg 95%
09:00 -23°C° 0 mm 1 mps 448 mmHg 93%
10:00 -21°C° 0 mm 1 mps 450 mmHg 91%
11:00 -19°C° 0 mm 1 mps 451 mmHg 89%
12:00 -18°C° 0 mm 1 mps 451 mmHg 86%
13:00 -17°C° 0 mm 1 mps 451 mmHg 83%
14:00 -16°C° 0 mm 1 mps 451 mmHg 80%
15:00 -19°C° 0 mm 1 mps 449 mmHg 83%
16:00 -21°C° 0 mm 1 mps 447 mmHg 85%
17:00 -24°C° 0 mm 1 mps 445 mmHg 87%
18:00 -24°C° 0 mm 1 mps 445 mmHg 78%
19:00 -25°C° 0 mm 1 mps 446 mmHg 70%
20:00 -25°C° 0 mm 1 mps 446 mmHg 61%
21:00 -29°C° 0 mm 2 mps 446 mmHg 56%
22:00 -29°C° 0 mm 2 mps 445 mmHg 52%
23:00 -30°C° 0 mm 2 mps 445 mmHg 48%

Day after tomorrow, 21 January, Thursday

Time Temperature Precipitation Wind Pressure Humidity
00:00 -30°C° 0 mm 2 mps 445 mmHg 45%
01:00 -30°C° 0 mm 2 mps 445 mmHg 42%
02:00 -29°C° 0 mm 1 mps 444 mmHg 40%
03:00 -28°C° 0 mm 1 mps 444 mmHg 37%
04:00 -28°C° 0 mm 1 mps 444 mmHg 34%
05:00 -30°C° 0 mm 2 mps 444 mmHg 32%
06:00 -28°C° 0 mm 1 mps 444 mmHg 31%
07:00 -27°C° 0 mm 1 mps 445 mmHg 30%
08:00 -27°C° 0 mm 1 mps 445 mmHg 30%
09:00 -26°C° 0 mm 2 mps 447 mmHg 36%
10:00 -23°C° 0 mm 2 mps 448 mmHg 43%
11:00 -19°C° 0 mm 2 mps 449 mmHg 49%
12:00 -18°C° 0 mm 2 mps 449 mmHg 51%
13:00 -17°C° 0 mm 2 mps 449 mmHg 53%
14:00 -16°C° 0 mm 2 mps 449 mmHg 55%
15:00 -17°C° 0 mm 2 mps 448 mmHg 55%
16:00 -18°C° 0 mm 2 mps 447 mmHg 56%
17:00 -19°C° 0 mm 2 mps 446 mmHg 56%
18:00 -22°C° 0 mm 3 mps 445 mmHg 58%
19:00 -23°C° 0 mm 3 mps 445 mmHg 59%
20:00 -23°C° 0 mm 3 mps 445 mmHg 60%
21:00 -23°C° 0.1 mm 3 mps 445 mmHg 70%
22:00 -20°C° 0.1 mm 2 mps 446 mmHg 79%
23:00 -20°C° 0.1 mm 2 mps 446 mmHg 88%

22 January, Friday

Time Temperature Precipitation Wind Pressure Humidity
00:00 -21°C° 0.1 mm 2 mps 446 mmHg 84%
01:00 -24°C° 0.1 mm 3 mps 445 mmHg 80%
02:00 -24°C° 0.1 mm 3 mps 444 mmHg 76%
03:00 -25°C° 0 mm 3 mps 443 mmHg 72%
04:00 -24°C° 0 mm 2 mps 443 mmHg 68%
05:00 -25°C° 0 mm 2 mps 442 mmHg 64%
06:00 -25°C° 0 mm 2 mps 442 mmHg 66%
07:00 -25°C° 0 mm 2 mps 442 mmHg 69%
08:00 -25°C° 0 mm 2 mps 442 mmHg 71%
09:00 -23°C° 0 mm 2 mps 443 mmHg 72%
10:00 -22°C° 0 mm 3 mps 444 mmHg 73%
11:00 -18°C° 0 mm 3 mps 445 mmHg 74%
12:00 -18°C° 0 mm 3 mps 444 mmHg 75%
13:00 -17°C° 0 mm 3 mps 444 mmHg 75%
14:00 -17°C° 0 mm 3 mps 443 mmHg 75%
15:00 -17°C° 0 mm 2 mps 442 mmHg 81%
16:00 -16°C° 0 mm 1 mps 441 mmHg 87%
17:00 -17°C° 0 mm 1 mps 439 mmHg 93%
18:00 -17°C° 0.1 mm 1 mps 440 mmHg 95%
19:00 -17°C° 0.1 mm 1 mps 440 mmHg 97%
20:00 -17°C° 0.1 mm 1 mps 441 mmHg 98%
21:00 -17°C° 0.2 mm 1 mps 441 mmHg 98%
22:00 -18°C° 0.2 mm 1 mps 441 mmHg 98%
23:00 -18°C° 0.2 mm 1 mps 441 mmHg 99%

23 January, Saturday

Time Temperature Precipitation Wind Pressure Humidity
00:00 -18°C° 0.2 mm 1 mps 441 mmHg 99%
01:00 -20°C° 0.2 mm 2 mps 441 mmHg 99%
02:00 -21°C° 0.2 mm 2 mps 441 mmHg 99%
03:00 -21°C° 0.2 mm 2 mps 440 mmHg 99%
04:00 -23°C° 0.2 mm 2 mps 440 mmHg 99%
05:00 -24°C° 0.2 mm 2 mps 440 mmHg 99%
06:00 -24°C° 0.2 mm 2 mps 440 mmHg 99%
07:00 -25°C° 0.2 mm 2 mps 440 mmHg 98%
08:00 -26°C° 0.2 mm 2 mps 441 mmHg 98%
09:00 -25°C° 0.2 mm 2 mps 441 mmHg 96%
10:00 -25°C° 0.2 mm 2 mps 442 mmHg 93%
11:00 -24°C° 0.2 mm 2 mps 442 mmHg 91%
12:00 -23°C° 0.2 mm 2 mps 443 mmHg 91%
13:00 -23°C° 0.2 mm 2 mps 443 mmHg 90%
14:00 -21°C° 0.2 mm 2 mps 443 mmHg 90%
15:00 -23°C° 0.1 mm 2 mps 444 mmHg 93%
16:00 -23°C° 0.1 mm 2 mps 444 mmHg 95%
17:00 -21°C° 0.1 mm 1 mps 444 mmHg 98%
18:00 -22°C° 0.1 mm 1 mps 444 mmHg 97%
19:00 -26°C° 0.1 mm 2 mps 444 mmHg 96%
20:00 -27°C° 0.1 mm 2 mps 444 mmHg 96%
21:00 -27°C° 0 mm 2 mps 444 mmHg 96%
22:00 -25°C° 0 mm 1 mps 443 mmHg 96%
23:00 -27°C° 0 mm 1 mps 443 mmHg 95%

24 January, Sunday

Time Temperature Precipitation Wind Pressure Humidity
00:00 -28°C° 0 mm 1 mps 442 mmHg 95%
01:00 -28°C° 0 mm 1 mps 442 mmHg 95%
02:00 -28°C° 0 mm 0 mps 441 mmHg 95%
03:00 -30°C° 0 mm 1 mps 441 mmHg 95%
04:00 -30°C° 0 mm 1 mps 441 mmHg 94%
05:00 -30°C° 0 mm 1 mps 441 mmHg 94%
06:00 -30°C° 0 mm 1 mps 442 mmHg 92%
07:00 -30°C° 0 mm 1 mps 442 mmHg 91%
08:00 -29°C° 0 mm 0 mps 443 mmHg 90%
09:00 -27°C° 0 mm 0 mps 444 mmHg 85%
10:00 -25°C° 0 mm 0 mps 445 mmHg 81%
11:00 -23°C° 0 mm 0 mps 445 mmHg 77%
12:00 -22°C° 0 mm 0 mps 446 mmHg 76%
13:00 -21°C° 0 mm 0 mps 446 mmHg 76%
14:00 -20°C° 0 mm 1 mps 446 mmHg 75%
15:00 -22°C° 0 mm 0 mps 444 mmHg 83%
16:00 -25°C° 0 mm 0 mps 443 mmHg 90%
17:00 -27°C° 0 mm 0 mps 441 mmHg 97%
18:00 -28°C° 0 mm 0 mps 441 mmHg 96%
19:00 -29°C° 0 mm 0 mps 441 mmHg 95%
20:00 -30°C° 0 mm 0 mps 441 mmHg 93%
21:00 -30°C° 0 mm 0 mps 440 mmHg 91%
22:00 -31°C° 0 mm 0 mps 440 mmHg 88%
23:00 -31°C° 0 mm 0 mps 440 mmHg 86%
Show more